sat.trackr.live / text

‹ back to catalog

STARLINK-11686 [DTC]

NORAD 64233 · 2025-119A

PAYLOAD ACTIVE UNKNOWN

§ Identity

Operator
Country
US
Launch date
2025-06-03
Launch site
AFETR
Launch vehicle
Mass (kg)
RCS (m²)

Purposes: comms

External: N2YO · Heavens-Above · Gunter

§ Orbital elements

Epoch: 2026-09-20T00:20:33.806688Z

Period
91.67 min
Inclination
43.0018°
Eccentricity
0.0001819
Mean motion
15.70848256 rev/d
Perigee alt
355.2 km
Apogee alt
357.7 km
Semi-major
6,734.6 km
B*
1.1921e-3
RAAN
118.0850°
Arg perigee
269.6039°
Mean anomaly
90.4620°
Rev number
7,580

§ Raw data

STARLINK-11686 [DTC]1 64233U 25119A   26263.01428017  .00155466  00000+0  11921-2 0  99902 64233  43.0018 118.0850 0001819 269.6039  90.4620 15.70848256 75800

JSON: /api/v1/satellites/64233 · /tle

For live sub-satellite position, see the globe view (requires WebGL).

§ Visibility from observer

Set your observer location to see the next 7 days of passes ≥ 10°. The values pass through the URL so the page stays shareable.

No JS? Fill the form by hand. The geolocation button needs JavaScript.